#timestamp,LO_Frequency,Hit,StdDev 
1545213615.2,286046996.5,N
1545213635.0,286047001.2,N
1545213635.9,286047001.2,N
1545213655.7,286046996.5,N
1545213675.6,286046997.8,N
1545213695.4,286046996.7,N
1545213715.3,286046997.7,N
1545213735.1,286046995.4,N
1545213736.0,286046995.4,N
1545213755.8,286046997.5,N
1545213805.7,286046993.4,E
1545213815.6,286046997.7,N
1545213835.5,286046999.0,P
1545213855.3,286046996.9,P
1545213875.1,286046998.4,N
1545213895.9,286047001.0,N
1545213915.7,286046998.6,N
1545213935.5,286046998.9,N
1545213955.4,286047001.1,N
1545213975.2,286046999.1,N
1545213995.1,286046998.8,N
1545213996.0,286046998.8,N
1545214015.8,286046996.9,N
1545214035.6,286046999.5,N
1545214055.5,286046996.8,N
1545214075.3,286046999.2,N
1545214095.1,286046997.3,N
1545214115.9,286046997.3,N
1545214135.7,286046997.8,N
1545214155.6,286046998.3,N
1545214175.4,286046998.8,N
1545214195.2,286046998.4,N
1545214215.1,286046999.8,N
1545214216.0,286046999.8,N
1545214235.8,286047002.5,N
1545214255.6,286047001.8,N
1545214275.5,286047001.9,N
1545214295.3,286047002.6,N
1545214315.2,286046999.8,N
1545214335.9,286047011.9,Y
1545214355.7,286047004.2,P
1545214375.6,286046999.7,N
1545214395.4,286047003.9,N
1545214415.2,286047004.4,N
1545214435.1,286047003.3,N
1545214436.0,286047003.3,N
1545214455.8,286047003.7,N
1545214475.7,286047003.2,N
1545214495.5,286047005.0,N
1545214515.3,286047005.7,Y
1545214535.2,286047002.5,P
1545214555.0,286047000.5,N
1545214555.9,286047000.5,N
1545214575.7,286047002.8,N
1545214595.6,286047002.2,N
1545214615.4,286047000.3,N
1545214635.3,286047000.2,N
1545214655.1,286047002.8,N
1545214656.0,286047002.8,N
1545214675.8,286047000.3,N
1545214695.7,286047002.6,N
1545214715.5,286047000.0,N
1545214735.3,286046999.9,N
1545214755.2,286046998.3,N
1545214775.0,286047001.2,N
1545214775.9,286047001.2,N
1545214795.8,286046999.1,N
1545214815.6,286046998.4,N
1545214835.4,286046999.2,N
1545214855.3,286046998.7,N
1545214875.1,286047001.2,N
1545214895.8,286047001.1,N
1545214915.7,286046998.3,N
1545214935.5,286046998.1,N
1545214955.4,286047001.2,N
1545214975.2,286047000.5,N
1545214995.0,286047000.4,N
1545214995.9,286047000.4,N
1545215015.8,286046998.4,N
1545215035.6,286046997.3,N
1545215055.4,286046996.9,N
1545215075.3,286046997.2,N
1545215095.1,286046996.5,N
1545215115.9,286046997.1,N
1545215135.7,286046999.1,N
1545215155.5,286046997.1,N
1545215175.4,286046999.1,N
1545215195.2,286046999.1,N
1545215215.0,286046996.9,N
1545215215.9,286046996.9,N
1545215235.8,286046997.8,N
1545215255.6,286046996.4,N
1545215275.5,286046996.4,N
1545215295.3,286046993.4,Y
1545215315.1,286046995.5,P
1545215335.9,286046995.4,N
1545215355.7,286046995.7,N
1545215375.5,286046996.1,N
1545215395.4,286046995.5,Y
1545215415.2,286046998.4,P
1545215435.1,286046999.9,N
1545215436.0,286046999.9,N
1545215455.8,286046999.7,N
1545215475.6,286047002.8,N
1545215495.5,286047000.2,N
1545215515.3,286047000.2,N
1545215535.1,286047000.8,N
1545215555.9,286046999.8,N
1545215575.7,286047002.4,N
1545215595.6,286047002.2,N
1545215615.4,286047002.1,N
1545215635.2,286046999.7,N
1545215655.1,286047002.1,N
1545215656.0,286047002.1,N
1545215675.8,286047002.6,N
1545215695.6,286047000.1,N
1545215715.5,286046999.0,N
1545215735.3,286046998.6,N
1545215755.2,286047001.1,N
1545215775.9,286047002.7,N
1545215795.7,286047002.8,N
1545215815.6,286046998.6,N
1545215835.4,286046999.3,N
1545215855.2,286046999.2,N
1545215875.1,286046998.9,N
1545215876.0,286046998.9,N
1545215895.8,286046998.3,N
1545215915.7,286046999.1,N
1545215935.5,286046997.2,N
1545215955.3,286046998.8,N
1545215975.2,286046998.3,N
1545215995.0,286047000.2,N
1545215995.9,286047000.2,N
1545216015.7,286046998.6,N
1545216035.6,286047001.2,N
1545216055.4,286047000.0,N
1545216075.3,286046999.7,N
1545216095.1,286047000.9,N
1545216096.0,286047000.9,N
1545216115.8,286046998.7,N
1545216135.7,286047000.8,N
1545216155.5,286047002.6,N
1545216175.3,286046999.8,N
1545216195.2,286046999.7,N
1545216215.0,286047002.2,N
1545216215.9,286047002.2,N
1545216235.8,286047002.4,N
1545216255.6,286047002.7,N
1545216275.4,286047002.3,N
1545216295.3,286047004.4,N
1545216315.1,286047004.9,N
1545216335.8,286047004.8,N
1545216355.7,286047004.6,N
1545216375.5,286047005.5,N
1545216395.4,286047003.2,N
1545216415.2,286047001.9,N
1545216435.0,286047002.4,N
1545216435.9,286047002.4,N
1545216455.8,286047000.2,N
1545216475.6,286046998.2,N
1545216495.5,286046998.8,N
1545216515.3,286046998.5,N
1545216535.1,286046998.1,N
1545216555.9,286047000.7,N
1545216575.7,286047000.7,N
1545216595.5,286047000.9,N
1545216615.4,286047000.3,N
1545216635.2,286047002.4,N
1545216655.1,286047000.2,N
1545216656.0,286047000.2,N
1545216675.8,286047002.4,N
1545216695.6,286047002.2,N
1545216715.5,286047002.6,N
1545216735.3,286046999.8,N
1545216755.1,286047000.1,N
1545216775.9,286047002.2,N
1545216795.7,286047002.2,N
1545216815.6,286047002.1,N
1545216835.4,286047000.2,N
1545216855.2,286047002.8,N
1545216875.1,286047000.9,N
1545216876.0,286047000.9,N
1545216895.8,286046998.6,N
1545216915.6,286046999.4,N
1545216935.5,286046998.3,N
1545216955.3,286047000.7,N
1545216975.2,286047000.6,N
1545216995.9,286047002.1,N
1545217015.7,286047001.9,N
1545217035.6,286047002.7,N
1545217055.4,286046999.7,N
1545217075.2,286046998.5,N
1545217095.1,286047000.6,N
1545217096.0,286047000.6,N
1545217115.8,286047002.4,N
1545217135.7,286047000.9,N
1545217155.5,286047002.2,N
1545217175.3,286047004.3,Y
1545217195.2,286047004.4,P
